Find Starlink 6031

NORAD ID: 56810 Int'l Des: 2023-078 Owner: SPXS Country: US Constellation: starlink operational
LEOCIRCULAR

現在のビュー

3D地球を読み込み中...

Starlink 6031について

説明を読み込み中...

次回通過

Passes for default location (London). Set your location on the main map for personalized predictions.

高度履歴

Loading altitude history...

軌道要素

1 56810U 23078AV 26151.15266921 -.00000239 00000-0 -12194-4 0 9994
2 56810 69.9989 136.4867 0003545 264.0056 96.0699 14.98331651165032
Epoch: May 31, 2026 • Age: 13 hours

現在のステータス

高度 575.3 km
速度 7.57 km/s
衛星直下点 20.48°N, 5.03°E
打ち上げ日 May 31, 2023
運用期間 3 years
タイプ internet

技術仕様

分類 Payload
質量 305.00 kg
乾燥質量 290.00 kg
総質量 305.00 kg
長さ 0.20 m
直径 2.80 m
スパン 9.00 m
形状 Box + pan
製造者 SPXS
バスタイプ Starlink
フェーズステータス In Orbit
所有者/国 SPXS/US

Most Searched